| time (UTC) | temp F | wind direction | speed MPH | gust MPH | rain 1hr in | rain 24hr in | rain mn in | humidity % | barometer mb |
| 20260509135417 | 58 | 265 | 4.0 | 9.0 | 0.00 | 0.00 | 0.00 | 81 | 1004.7 |
| 20260509134937 | 57 | 232 | 2.0 | 7.0 | 0.00 | 0.00 | 0.00 | 82 | 1004.7 |
| 20260509134434 | 57 | 277 | 3.0 | 8.0 | 0.00 | 0.00 | 0.00 | 83 | 1004.7 |
| 20260509133914 | 57 | 167 | 2.0 | 9.0 | 0.00 | 0.00 | 0.00 | 84 | 1004.3 |
| 20260509133415 | 56 | 257 | 3.0 | 9.0 | 0.00 | 0.00 | 0.00 | 85 | 1004.2 |
| 20260509132915 | 56 | 275 | 3.0 | 7.0 | 0.00 | 0.00 | 0.00 | 86 | 1004.2 |
| 20260509132434 | 55 | 209 | 2.0 | 7.0 | 0.00 | 0.00 | 0.00 | 87 | 1004.2 |
| 20260509131930 | 55 | 206 | 4.0 | 7.0 | 0.00 | 0.00 | 0.00 | 87 | 1004.3 |
| 20260509131450 | 55 | 360 | 3.0 | 8.0 | 0.00 | 0.00 | 0.00 | 89 | 1004.2 |
| 20260509130930 | 55 | 360 | 3.0 | 8.0 | 0.00 | 0.00 | 0.00 | 89 | 1004.3 |
| 20260509130429 | 54 | 360 | 2.0 | 9.0 | 0.00 | 0.00 | 0.00 | 90 | 1004.4 |
| 20260509125929 | 54 | 226 | 3.0 | 9.0 | 0.00 | 0.00 | 0.00 | 91 | 1004.4 |
| 20260509125429 | 53 | 360 | 4.0 | 11.0 | 0.00 | 0.00 | 0.00 | 91 | 1004.4 |
| 20260509124931 | 53 | 360 | 2.0 | 11.0 | 0.00 | 0.00 | 0.00 | 91 | 1004.4 |
| 20260509124431 | 53 | 360 | 3.0 | 5.0 | 0.00 | 0.00 | 0.00 | 91 | 1004.4 |
| 20260509123951 | 53 | 360 | 3.0 | 6.0 | 0.00 | 0.00 | 0.00 | 91 | 1004.5 |
| 20260509123432 | 53 | 171 | 3.0 | 6.0 | 0.00 | 0.00 | 0.00 | 91 | 1004.5 |
| 20260509122913 | 53 | 234 | 3.0 | 7.0 | 0.00 | 0.00 | 0.00 | 91 | 1004.6 |
| 20260509122414 | 53 | 201 | 1.0 | 7.0 | 0.00 | 0.00 | 0.00 | 91 | 1004.6 |
| 20260509121916 | 52 | 208 | 2.0 | 7.0 | 0.00 | 0.00 | 0.00 | 91 | 1004.6 |
| 20260509121417 | 52 | 175 | 3.0 | 7.0 | 0.00 | 0.00 | 0.00 | 92 | 1004.7 |
| 20260509120917 | 52 | 212 | 3.0 | 9.0 | 0.00 | 0.00 | 0.00 | 92 | 1004.7 |
| 20260509120417 | 52 | 190 | 4.0 | 9.0 | 0.00 | 0.00 | 0.00 | 92 | 1004.7 |
| 20260509115917 | 52 | 215 | 2.0 | 8.0 | 0.00 | 0.00 | 0.00 | 92 | 1004.6 |
| 20260509115417 | 52 | 360 | 2.0 | 8.0 | 0.00 | 0.00 | 0.00 | 92 | 1004.6 |
| 20260509114918 | 52 | 360 | 3.0 | 6.0 | 0.00 | 0.00 | 0.00 | 92 | 1004.6 |
| 20260509114418 | 52 | 360 | 3.0 | 4.0 | 0.00 | 0.00 | 0.00 | 92 | 1004.7 |
| 20260509113919 | 52 | 175 | 1.0 | 5.0 | 0.00 | 0.00 | 0.00 | 92 | 1004.7 |
| 20260509113447 | 52 | 256 | 1.0 | 6.0 | 0.00 | 0.00 | 0.00 | 92 | 1004.8 |
| 20260509112925 | 52 | 167 | 2.0 | 9.0 | 0.00 | 0.00 | 0.00 | 92 | 1004.8 |
| 20260509112426 | 52 | 182 | 3.0 | 9.0 | 0.00 | 0.00 | 0.00 | 92 | 1004.7 |
| 20260509111926 | 52 | 360 | 3.0 | 5.0 | 0.00 | 0.00 | 0.00 | 92 | 1004.8 |
| 20260509111427 | 51 | 360 | 2.0 | 6.0 | 0.00 | 0.00 | 0.00 | 92 | 1004.8 |
| 20260509110929 | 52 | 360 | 2.0 | 6.0 | 0.00 | 0.00 | 0.00 | 92 | 1004.7 |
| 20260509110428 | 51 | 360 | 2.0 | 5.0 | 0.00 | 0.00 | 0.00 | 92 | 1004.7 |
| 20260509105930 | 52 | 360 | 3.0 | 5.0 | 0.00 | 0.00 | 0.00 | 92 | 1004.7 |
| 20260509105429 | 51 | 360 | 2.0 | 5.0 | 0.00 | 0.00 | 0.00 | 92 | 1004.8 |
| 20260509104929 | 51 | 219 | 1.0 | 4.0 | 0.00 | 0.00 | 0.00 | 92 | 1004.9 |
| 20260509104429 | 51 | 360 | 2.0 | 4.0 | 0.00 | 0.00 | 0.00 | 92 | 1005.1 |
| 20260509103932 | 51 | 360 | 1.0 | 6.0 | 0.00 | 0.00 | 0.00 | 92 | 1005.1 |
| 20260509103451 | 51 | 176 | 2.0 | 7.0 | 0.00 | 0.00 | 0.00 | 92 | 1005.2 |
| 20260509102932 | 51 | 360 | 2.0 | 7.0 | 0.00 | 0.00 | 0.00 | 92 | 1005.1 |
| 20260509102412 | 52 | 217 | 2.0 | 4.0 | 0.00 | 0.00 | 0.00 | 92 | 1005.0 |
| 20260509101913 | 52 | 360 | 1.0 | 3.0 | 0.00 | 0.00 | 0.00 | 92 | 1004.9 |
| 20260509101414 | 52 | 194 | 1.0 | 3.0 | 0.00 | 0.00 | 0.00 | 92 | 1005.1 |
| 20260509100916 | 52 | 360 | 0.0 | 3.0 | 0.00 | 0.00 | 0.00 | 92 | 1005.1 |
| 20260509100416 | 52 | 360 | 1.0 | 5.0 | 0.00 | 0.00 | 0.00 | 92 | 1005.1 |
| 20260509095918 | 51 | 259 | 2.0 | 5.0 | 0.00 | 0.00 | 0.00 | 92 | 1005.0 |
| 20260509095419 | 51 | 180 | 1.0 | 3.0 | 0.00 | 0.00 | 0.00 | 92 | 1004.8 |
| 20260509094919 | 51 | 360 | 0.0 | 5.0 | 0.00 | 0.00 | 0.00 | 92 | 1004.8 |
| 20260509094440 | 51 | 360 | 2.0 | 5.0 | 0.00 | 0.00 | 0.00 | 92 | 1004.8 |
| 20260509093921 | 51 | 360 | 1.0 | 3.0 | 0.00 | 0.00 | 0.00 | 92 | 1004.9 |
| 20260509093422 | 51 | 232 | 0.0 | 3.0 | 0.00 | 0.00 | 0.00 | 91 | 1005.0 |
| 20260509092921 | 51 | 159 | 2.0 | 4.0 | 0.00 | 0.00 | 0.00 | 91 | 1005.0 |
| 20260509092423 | 51 | 196 | 0.0 | 4.0 | 0.00 | 0.00 | 0.00 | 91 | 1004.9 |
| 20260509091922 | 51 | 233 | 1.0 | 4.0 | 0.00 | 0.00 | 0.00 | 91 | 1004.9 |
| 20260509091423 | 51 | 220 | 0.0 | 4.0 | 0.00 | 0.00 | 0.00 | 91 | 1004.9 |
| 20260509090923 | 51 | 156 | 1.0 | 3.0 | 0.00 | 0.00 | 0.00 | 91 | 1005.0 |
| 20260509090443 | 51 | 160 | 0.0 | 4.0 | 0.00 | 0.00 | 0.00 | 90 | 1005.0 |
| 20260509085923 | 51 | 195 | 1.0 | 4.0 | 0.00 | 0.00 | 0.00 | 90 | 1005.0 |
| 20260509085423 | 51 | 186 | 1.0 | 4.0 | 0.00 | 0.00 | 0.00 | 90 | 1005.1 |
| 20260509084925 | 51 | 200 | 1.0 | 3.0 | 0.00 | 0.00 | 0.00 | 90 | 1005.0 |
| 20260509084446 | 51 | 202 | 0.0 | 3.0 | 0.00 | 0.00 | 0.00 | 90 | 1005.0 |
| 20260509083947 | 51 | 205 | 0.0 | 1.0 | 0.00 | 0.00 | 0.00 | 89 | 1005.1 |
| 20260509083425 | 51 | 232 | 0.0 | 4.0 | 0.00 | 0.00 | 0.00 | 89 | 1005.0 |
| 20260509082926 | 51 | 171 | 1.0 | 4.0 | 0.00 | 0.00 | 0.00 | 89 | 1005.0 |
| 20260509082428 | 51 | 207 | 1.0 | 4.0 | 0.00 | 0.00 | 0.00 | 89 | 1005.0 |
| 20260509081928 | 52 | 178 | 0.0 | 3.0 | 0.00 | 0.00 | 0.00 | 89 | 1005.1 |
| 20260509081429 | 52 | 182 | 0.0 | 3.0 | 0.00 | 0.00 | 0.00 | 89 | 1005.2 |
| 20260509080928 | 52 | 360 | 0.0 | 3.0 | 0.00 | 0.00 | 0.00 | 88 | 1005.2 |
| 20260509080429 | 52 | 360 | 0.0 | 3.0 | 0.00 | 0.00 | 0.00 | 88 | 1005.2 |
| 20260509075949 | 52 | 360 | 0.0 | 3.0 | 0.00 | 0.00 | 0.00 | 88 | 1005.3 |
| 20260509075429 | 52 | 360 | 0.0 | 3.0 | 0.00 | 0.00 | 0.00 | 88 | 1005.3 |
| 20260509074928 | 52 | 360 | 0.0 | 2.0 | 0.00 | 0.00 | 0.00 | 88 | 1005.2 |
| 20260509074429 | 52 | 360 | 1.0 | 2.0 | 0.00 | 0.00 | 0.00 | 87 | 1005.3 |
| 20260509073928 | 52 | 360 | 0.0 | 2.0 | 0.00 | 0.00 | 0.00 | 87 | 1005.4 |
| 20260509073429 | 52 | 360 | 0.0 | 2.0 | 0.00 | 0.00 | 0.00 | 87 | 1005.3 |
| 20260509072948 | 52 | 360 | 0.0 | 0.0 | 0.00 | 0.00 | 0.00 | 87 | 1005.3 |
| 20260509072428 | 52 | 360 | 0.0 | 0.0 | 0.00 | 0.00 | 0.00 | 87 | 1005.4 |
| 20260509071929 | 52 | 360 | 0.0 | 3.0 | 0.00 | 0.00 | 0.00 | 87 | 1005.5 |
| 20260509071431 | 53 | 360 | 0.0 | 3.0 | 0.00 | 0.00 | 0.00 | 87 | 1005.6 |
| 20260509070929 | 53 | 360 | 1.0 | 3.0 | 0.00 | 0.00 | 0.00 | 87 | 1005.6 |
| 20260509070449 | 53 | 360 | 0.0 | 3.0 | 0.00 | 0.00 | 0.00 | 86 | 1005.7 |
| 20260509065928 | 53 | 360 | 1.0 | 3.0 | 0.00 | 0.00 | 0.00 | 86 | 1005.5 |
| 20260509065428 | 53 | 360 | 0.0 | 0.0 | 0.00 | 0.00 | 0.00 | 86 | 1005.7 |
| 20260509064929 | 53 | 360 | 0.0 | 2.0 | 0.00 | 0.00 | 0.00 | 85 | 1005.7 |
| 20260509064431 | 53 | 360 | 1.0 | 2.0 | 0.00 | 0.00 | 0.00 | 85 | 1005.7 |
| 20260509063932 | 53 | 360 | 0.0 | 3.0 | 0.00 | 0.00 | 0.00 | 85 | 1005.7 |
| 20260509063453 | 53 | 360 | 0.0 | 1.0 | 0.00 | 0.00 | 0.00 | 85 | 1005.8 |
| 20260509062952 | 53 | 360 | 0.0 | 2.0 | 0.00 | 0.00 | 0.00 | 84 | 1005.8 |
| 20260509062432 | 53 | 360 | 0.0 | 3.0 | 0.00 | 0.00 | 0.00 | 84 | 1005.8 |
| 20260509061932 | 53 | 360 | 1.0 | 3.0 | 0.00 | 0.00 | 0.00 | 84 | 1005.8 |
| 20260509061431 | 53 | 360 | 0.0 | 1.0 | 0.00 | 0.00 | 0.00 | 83 | 1005.8 |
| 20260509060951 | 53 | 360 | 0.0 | 1.0 | 0.00 | 0.00 | 0.00 | 83 | 1005.9 |
| 20260509060431 | 53 | 360 | 0.0 | 3.0 | 0.00 | 0.01 | 0.00 | 83 | 1006.0 |
| 20260509055946 | 54 | 360 | 2.0 | 3.0 | 0.00 | 0.01 | 0.00 | 83 | 1006.1 |
| 20260509055426 | 54 | 360 | 0.0 | 0.0 | 0.00 | 0.01 | 0.00 | 82 | 1006.2 |
| 20260509054927 | 54 | 360 | 0.0 | 0.0 | 0.00 | 0.01 | 0.00 | 82 | 1006.2 |
| 20260509054428 | 54 | 360 | 0.0 | 0.0 | 0.00 | 0.01 | 0.00 | 82 | 1006.2 |
| 20260509053926 | 54 | 360 | 0.0 | 2.0 | 0.00 | 0.01 | 0.00 | 82 | 1006.3 |
| 20260509053427 | 54 | 360 | 0.0 | 2.0 | 0.00 | 0.01 | 0.00 | 81 | 1006.2 |
| 20260509052926 | 54 | 360 | 0.0 | 1.0 | 0.00 | 0.01 | 0.00 | 81 | 1006.2 |
| 20260509052425 | 54 | 360 | 0.0 | 2.0 | 0.00 | 0.01 | 0.00 | 81 | 1006.2 |
| 20260509051927 | 54 | 360 | 0.0 | 2.0 | 0.00 | 0.01 | 0.00 | 80 | 1006.4 |
| 20260509051413 | 54 | 360 | 0.0 | 3.0 | 0.00 | 0.01 | 0.00 | 80 | 1006.2 |
| 20260509050914 | 54 | 360 | 0.0 | 3.0 | 0.00 | 0.01 | 0.00 | 79 | 1006.3 |
| 20260509050414 | 55 | 360 | 0.0 | 1.0 | 0.00 | 0.01 | 0.00 | 79 | 1006.3 |
| 20260509045916 | 55 | 360 | 0.0 | 3.0 | 0.00 | 0.01 | 0.00 | 79 | 1006.4 |
| 20260509045416 | 55 | 360 | 1.0 | 3.0 | 0.00 | 0.01 | 0.00 | 79 | 1006.3 |
| 20260509044915 | 55 | 360 | 0.0 | 3.0 | 0.00 | 0.01 | 0.00 | 78 | 1006.4 |
| 20260509044418 | 55 | 360 | 1.0 | 3.0 | 0.00 | 0.01 | 0.00 | 78 | 1006.5 |
| 20260509043917 | 55 | 360 | 0.0 | 1.0 | 0.00 | 0.01 | 0.00 | 78 | 1006.5 |
| 20260509043418 | 55 | 360 | 0.0 | 1.0 | 0.00 | 0.01 | 0.00 | 78 | 1006.5 |
| 20260509042936 | 55 | 360 | 0.0 | 2.0 | 0.00 | 0.01 | 0.00 | 77 | 1006.6 |
| 20260509042415 | 55 | 360 | 0.0 | 2.0 | 0.00 | 0.01 | 0.00 | 77 | 1006.6 |
| 20260509041916 | 55 | 360 | 0.0 | 0.0 | 0.00 | 0.01 | 0.00 | 77 | 1006.6 |
| 20260509041416 | 56 | 360 | 0.0 | 0.0 | 0.00 | 0.01 | 0.00 | 77 | 1006.7 |
| 20260509040917 | 56 | 360 | 0.0 | 3.0 | 0.00 | 0.01 | 0.00 | 77 | 1006.6 |
| 20260509040434 | 56 | 360 | 0.0 | 3.0 | 0.00 | 0.01 | 0.01 | 77 | 1006.6 |
| 20260509035914 | 56 | 360 | 0.0 | 0.0 | 0.00 | 0.01 | 0.01 | 77 | 1006.6 |
| 20260509035434 | 56 | 360 | 0.0 | 0.0 | 0.00 | 0.01 | 0.01 | 77 | 1006.7 |
| 20260509034934 | 56 | 360 | 0.0 | 0.0 | 0.00 | 0.01 | 0.01 | 77 | 1006.7 |
| 20260509034413 | 56 | 360 | 0.0 | 0.0 | 0.00 | 0.01 | 0.01 | 77 | 1006.8 |
| 20260509033914 | 56 | 360 | 0.0 | 3.0 | 0.00 | 0.01 | 0.01 | 77 | 1006.8 |
| 20260509033414 | 56 | 360 | 0.0 | 3.0 | 0.00 | 0.01 | 0.01 | 77 | 1006.8 |
| 20260509032913 | 56 | 360 | 0.0 | 2.0 | 0.00 | 0.01 | 0.01 | 77 | 1007.0 |
| 20260509032413 | 56 | 360 | 0.0 | 2.0 | 0.00 | 0.01 | 0.01 | 77 | 1007.1 |
| 20260509031913 | 56 | 360 | 0.0 | 1.0 | 0.00 | 0.01 | 0.01 | 78 | 1007.1 |
| 20260509031415 | 56 | 360 | 0.0 | 2.0 | 0.00 | 0.01 | 0.01 | 78 | 1007.1 |
| 20260509030936 | 56 | 360 | 1.0 | 4.0 | 0.00 | 0.01 | 0.01 | 78 | 1007.0 |
| 20260509030435 | 56 | 360 | 2.0 | 3.0 | 0.00 | 0.01 | 0.01 | 78 | 1007.0 |
| 20260509025955 | 56 | 360 | 0.0 | 3.0 | 0.00 | 0.01 | 0.01 | 78 | 1007.0 |
| 20260509025435 | 56 | 360 | 1.0 | 3.0 | 0.00 | 0.01 | 0.01 | 77 | 1007.0 |
| 20260509024915 | 56 | 360 | 0.0 | 0.0 | 0.00 | 0.01 | 0.01 | 77 | 1007.1 |
| 20260509024415 | 57 | 360 | 0.0 | 0.0 | 0.00 | 0.01 | 0.01 | 77 | 1007.2 |
| 20260509023914 | 57 | 360 | 0.0 | 0.0 | 0.00 | 0.01 | 0.01 | 76 | 1007.2 |
| 20260509023414 | 57 | 360 | 0.0 | 0.0 | 0.00 | 0.01 | 0.01 | 76 | 1007.1 |
| 20260509022914 | 57 | 360 | 0.0 | 0.0 | 0.00 | 0.01 | 0.01 | 75 | 1007.1 |
| 20260509022414 | 57 | 360 | 0.0 | 0.0 | 0.00 | 0.01 | 0.01 | 74 | 1007.2 |
| 20260509021915 | 57 | 360 | 0.0 | 0.0 | 0.00 | 0.01 | 0.01 | 74 | 1007.1 |
| 20260509021416 | 58 | 360 | 0.0 | 0.0 | 0.00 | 0.01 | 0.01 | 73 | 1007.2 |
| 20260509020917 | 58 | 360 | 0.0 | 0.0 | 0.00 | 0.01 | 0.01 | 72 | 1007.2 |
| 20260509020416 | 58 | 360 | 0.0 | 0.0 | 0.00 | 0.01 | 0.01 | 73 | 1007.2 |
| 20260509015916 | 58 | 360 | 0.0 | 0.0 | 0.00 | 0.01 | 0.01 | 73 | 1007.1 |
| 20260509015417 | 58 | 360 | 0.0 | 0.0 | 0.00 | 0.01 | 0.01 | 72 | 1007.2 |
| 20260509014937 | 59 | 360 | 0.0 | 0.0 | 0.00 | 0.01 | 0.01 | 71 | 1007.3 |
| 20260509014418 | 59 | 360 | 0.0 | 0.0 | 0.00 | 0.01 | 0.01 | 71 | 1007.1 |
| 20260509013918 | 59 | 360 | 0.0 | 0.0 | 0.00 | 0.01 | 0.01 | 70 | 1007.3 |
| 20260509013419 | 59 | 360 | 0.0 | 0.0 | 0.00 | 0.01 | 0.01 | 69 | 1007.2 |
| 20260509012921 | 60 | 360 | 0.0 | 0.0 | 0.00 | 0.01 | 0.01 | 67 | 1007.3 |
| 20260509012422 | 60 | 360 | 0.0 | 0.0 | 0.00 | 0.01 | 0.01 | 66 | 1007.2 |
| 20260509011923 | 60 | 360 | 0.0 | 0.0 | 0.00 | 0.01 | 0.01 | 66 | 1007.2 |
| 20260509011423 | 60 | 360 | 0.0 | 0.0 | 0.00 | 0.01 | 0.01 | 64 | 1007.1 |
| 20260509010923 | 61 | 360 | 0.0 | 0.0 | 0.00 | 0.01 | 0.01 | 63 | 1007.1 |
| 20260509010442 | 61 | 360 | 0.0 | 0.0 | 0.00 | 0.06 | 0.01 | 64 | 1007.1 |
| 20260509005922 | 61 | 360 | 0.0 | 0.0 | 0.00 | 0.06 | 0.01 | 63 | 1007.1 |
| 20260509005424 | 61 | 360 | 0.0 | 0.0 | 0.00 | 0.06 | 0.01 | 62 | 1007.0 |
| 20260509004924 | 62 | 360 | 0.0 | 0.0 | 0.00 | 0.06 | 0.01 | 60 | 1006.9 |
| 20260509004424 | 62 | 360 | 0.0 | 0.0 | 0.00 | 0.06 | 0.01 | 59 | 1007.0 |
| 20260509003924 | 62 | 360 | 0.0 | 0.0 | 0.00 | 0.06 | 0.01 | 58 | 1007.1 |
| 20260509003425 | 62 | 360 | 0.0 | 0.0 | 0.00 | 0.06 | 0.01 | 56 | 1006.9 |
| 20260509002927 | 62 | 238 | 0.0 | 0.0 | 0.00 | 0.06 | 0.01 | 55 | 1006.9 |
| 20260509002425 | 63 | 238 | 0.0 | 0.0 | 0.00 | 0.06 | 0.01 | 54 | 1006.8 |
| 20260509001927 | 63 | 201 | 0.0 | 0.0 | 0.00 | 0.06 | 0.01 | 53 | 1006.8 |
| 20260509001427 | 63 | 201 | 0.0 | 0.0 | 0.00 | 0.06 | 0.01 | 52 | 1006.8 |
| 20260509000927 | 63 | 201 | 0.0 | 0.0 | 0.00 | 0.06 | 0.01 | 52 | 1006.7 |
| 20260509000448 | 63 | 143 | 0.0 | 3.0 | 0.00 | 0.06 | 0.01 | 51 | 1006.7 |
| 20260508235929 | 63 | 219 | 1.0 | 3.0 | 0.00 | 0.06 | 0.01 | 53 | 1006.8 |
| 20260508235430 | 63 | 176 | 0.0 | 2.0 | 0.00 | 0.06 | 0.01 | 53 | 1006.7 |
| 20260508234949 | 64 | 176 | 0.0 | 2.0 | 0.00 | 0.06 | 0.01 | 52 | 1006.7 |
| 20260508234430 | 64 | 161 | 0.0 | 2.0 | 0.00 | 0.06 | 0.01 | 52 | 1006.8 |
| 20260508233931 | 64 | 139 | 0.0 | 4.0 | 0.00 | 0.06 | 0.01 | 52 | 1006.8 |
| 20260508233432 | 64 | 209 | 2.0 | 4.0 | 0.00 | 0.06 | 0.01 | 51 | 1006.9 |
| 20260508232913 | 64 | 205 | 1.0 | 2.0 | 0.00 | 0.06 | 0.01 | 51 | 1006.9 |
| 20260508232432 | 65 | 261 | 0.0 | 4.0 | 0.00 | 0.06 | 0.01 | 51 | 1006.9 |
| 20260508231913 | 65 | 255 | 1.0 | 4.0 | 0.00 | 0.06 | 0.01 | 51 | 1006.9 |
| 20260508231433 | 65 | 216 | 2.0 | 5.0 | 0.00 | 0.06 | 0.01 | 50 | 1007.0 |
| 20260508230933 | 65 | 186 | 2.0 | 4.0 | 0.00 | 0.06 | 0.01 | 51 | 1006.9 |
| 20260508230415 | 65 | 175 | 1.0 | 3.0 | 0.00 | 0.06 | 0.01 | 52 | 1007.0 |
| 20260508225934 | 65 | 221 | 1.0 | 6.0 | 0.00 | 0.06 | 0.01 | 50 | 1006.9 |
| 20260508225449 | 65 | 236 | 2.0 | 6.0 | 0.00 | 0.06 | 0.01 | 49 | 1007.0 |
| 20260508224913 | 65 | 248 | 2.0 | 5.0 | 0.00 | 0.06 | 0.01 | 50 | 1007.0 |
| 20260508224428 | 65 | 20 | 2.0 | 4.0 | 0.00 | 0.06 | 0.01 | 51 | 1006.9 |
| 20260508223949 | 65 | 159 | 0.0 | 5.0 | 0.00 | 0.06 | 0.01 | 52 | 1007.0 |
| 20260508223428 | 65 | 249 | 3.0 | 5.0 | 0.00 | 0.06 | 0.01 | 53 | 1007.1 |
| 20260508222930 | 65 | 176 | 1.0 | 5.0 | 0.00 | 0.06 | 0.01 | 53 | 1007.0 |
| 20260508222430 | 65 | 252 | 1.0 | 7.0 | 0.00 | 0.06 | 0.01 | 53 | 1006.9 |
| 20260508221928 | 65 | 219 | 2.0 | 4.0 | 0.00 | 0.06 | 0.01 | 52 | 1007.0 |
| 20260508221428 | 65 | 26 | 1.0 | 3.0 | 0.00 | 0.06 | 0.01 | 51 | 1007.0 |
| 20260508220928 | 65 | 205 | 1.0 | 4.0 | 0.00 | 0.06 | 0.01 | 53 | 1007.1 |
| 20260508220428 | 65 | 253 | 2.0 | 5.0 | 0.00 | 0.06 | 0.01 | 53 | 1007.1 |
| 20260508215929 | 65 | 235 | 2.0 | 6.0 | 0.00 | 0.06 | 0.01 | 55 | 1007.1 |
| 20260508215428 | 65 | 211 | 0.0 | 4.0 | 0.00 | 0.06 | 0.01 | 55 | 1007.0 |
| 20260508214930 | 65 | 175 | 0.0 | 3.0 | 0.00 | 0.06 | 0.01 | 54 | 1007.0 |
| 20260508214430 | 65 | 260 | 1.0 | 5.0 | 0.00 | 0.06 | 0.01 | 54 | 1007.0 |
| 20260508213951 | 64 | 238 | 2.0 | 5.0 | 0.00 | 0.06 | 0.01 | 54 | 1007.0 |
| 20260508213428 | 64 | 208 | 2.0 | 5.0 | 0.00 | 0.06 | 0.01 | 52 | 1007.1 |
| 20260508212949 | 64 | 265 | 0.0 | 5.0 | 0.00 | 0.06 | 0.01 | 52 | 1007.1 |
| 20260508212429 | 64 | 181 | 2.0 | 5.0 | 0.00 | 0.06 | 0.01 | 51 | 1007.1 |
| 20260508211929 | 64 | 175 | 2.0 | 4.0 | 0.00 | 0.06 | 0.01 | 55 | 1007.3 |
| 20260508211430 | 64 | 188 | 2.0 | 4.0 | 0.00 | 0.06 | 0.01 | 53 | 1007.2 |
| 20260508210929 | 64 | 253 | 2.0 | 4.0 | 0.00 | 0.06 | 0.01 | 54 | 1007.2 |
| 20260508210430 | 64 | 219 | 2.0 | 7.0 | 0.00 | 0.06 | 0.01 | 53 | 1007.3 |
| 20260508205931 | 64 | 259 | 2.0 | 7.0 | 0.00 | 0.06 | 0.01 | 54 | 1007.4 |
| 20260508205413 | 65 | 192 | 4.0 | 6.0 | 0.00 | 0.06 | 0.01 | 53 | 1007.4 |
| 20260508204933 | 65 | 210 | 3.0 | 6.0 | 0.00 | 0.06 | 0.01 | 56 | 1007.5 |
| 20260508204453 | 65 | 277 | 2.0 | 6.0 | 0.00 | 0.06 | 0.01 | 56 | 1007.5 |
| 20260508203914 | 64 | 194 | 2.0 | 6.0 | 0.00 | 0.06 | 0.01 | 55 | 1007.5 |
| 20260508203436 | 65 | 181 | 4.0 | 7.0 | 0.00 | 0.06 | 0.01 | 56 | 1007.6 |
| 20260508202936 | 64 | 180 | 3.0 | 7.0 | 0.00 | 0.06 | 0.01 | 55 | 1007.6 |
| 20260508202435 | 64 | 221 | 3.0 | 8.0 | 0.00 | 0.06 | 0.01 | 58 | 1007.7 |
| 20260508201955 | 64 | 192 | 3.0 | 7.0 | 0.00 | 0.06 | 0.01 | 57 | 1007.7 |
| 20260508201453 | 64 | 207 | 2.0 | 7.0 | 0.00 | 0.06 | 0.01 | 57 | 1007.8 |
| 20260508200914 | 64 | 176 | 3.0 | 7.0 | 0.00 | 0.06 | 0.01 | 58 | 1008.0 |
| 20260508200416 | 64 | 133 | 1.0 | 6.0 | 0.00 | 0.06 | 0.01 | 59 | 1007.9 |
| 20260508195915 | 64 | 198 | 3.0 | 7.0 | 0.00 | 0.06 | 0.01 | 56 | 1008.0 |
| 20260508195414 | 64 | 189 | 3.0 | 7.0 | 0.00 | 0.06 | 0.01 | 56 | 1008.1 |
| 20260508194934 | 64 | 254 | 3.0 | 5.0 | 0.00 | 0.06 | 0.01 | 57 | 1008.1 |
| 20260508194453 | 63 | 117 | 1.0 | 4.0 | 0.00 | 0.06 | 0.01 | 57 | 1008.1 |
| 20260508193932 | 63 | 261 | 2.0 | 6.0 | 0.00 | 0.06 | 0.01 | 56 | 1008.2 |
| 20260508193415 | 63 | 200 | 3.0 | 6.0 | 0.00 | 0.06 | 0.01 | 58 | 1008.3 |
| 20260508192916 | 63 | 224 | 1.0 | 7.0 | 0.00 | 0.06 | 0.01 | 57 | 1008.3 |
| 20260508192416 | 64 | 78 | 1.0 | 5.0 | 0.00 | 0.06 | 0.01 | 58 | 1008.4 |
| 20260508191916 | 64 | 167 | 1.0 | 6.0 | 0.00 | 0.06 | 0.01 | 57 | 1008.5 |
| 20260508191417 | 64 | 202 | 1.0 | 8.0 | 0.00 | 0.06 | 0.01 | 58 | 1008.6 |
| 20260508190916 | 64 | 128 | 5.0 | 8.0 | 0.00 | 0.06 | 0.01 | 58 | 1008.7 |
| 20260508190417 | 64 | 191 | 2.0 | 6.0 | 0.00 | 0.06 | 0.01 | 60 | 1008.7 |
| 20260508185916 | 64 | 187 | 4.0 | 7.0 | 0.00 | 0.06 | 0.01 | 58 | 1008.8 |
| 20260508185418 | 64 | 158 | 3.0 | 7.0 | 0.00 | 0.06 | 0.01 | 57 | 1008.9 |
| 20260508184936 | 64 | 217 | 4.0 | 7.0 | 0.00 | 0.06 | 0.01 | 58 | 1009.0 |
| 20260508184415 | 64 | 121 | 1.0 | 8.0 | 0.00 | 0.06 | 0.01 | 58 | 1009.1 |
| 20260508183914 | 64 | 142 | 2.0 | 8.0 | 0.00 | 0.06 | 0.01 | 59 | 1009.1 |
| 20260508183414 | 64 | 214 | 2.0 | 6.0 | 0.00 | 0.06 | 0.01 | 55 | 1009.1 |
| 20260508182915 | 64 | 180 | 2.0 | 6.0 | 0.00 | 0.06 | 0.01 | 56 | 1009.2 |
| 20260508182431 | 64 | 148 | 2.0 | 7.0 | 0.00 | 0.06 | 0.01 | 56 | 1009.2 |
| 20260508181951 | 64 | 248 | 3.0 | 7.0 | 0.00 | 0.06 | 0.01 | 54 | 1009.4 |
| 20260508181430 | 64 | 169 | 0.0 | 5.0 | 0.00 | 0.06 | 0.01 | 54 | 1009.2 |
| 20260508180931 | 64 | 243 | 0.0 | 5.0 | 0.00 | 0.06 | 0.01 | 51 | 1009.5 |
| 20260508180430 | 64 | 222 | 2.0 | 5.0 | 0.00 | 0.06 | 0.01 | 49 | 1009.5 |
| 20260508175931 | 64 | 211 | 2.0 | 6.0 | 0.00 | 0.06 | 0.01 | 50 | 1009.5 |
| 20260508175431 | 64 | 285 | 2.0 | 7.0 | 0.00 | 0.06 | 0.01 | 45 | 1009.6 |
| 20260508174931 | 64 | 256 | 2.0 | 7.0 | 0.00 | 0.06 | 0.01 | 44 | 1009.6 |
| 20260508174430 | 64 | 178 | 2.0 | 5.0 | 0.00 | 0.06 | 0.01 | 45 | 1009.7 |
| 20260508173931 | 64 | 199 | 2.0 | 5.0 | 0.00 | 0.06 | 0.01 | 45 | 1009.7 |
| 20260508173429 | 64 | 158 | 1.0 | 4.0 | 0.00 | 0.06 | 0.01 | 48 | 1009.7 |
| 20260508172926 | 63 | 223 | 1.0 | 6.0 | 0.00 | 0.06 | 0.01 | 45 | 1010.0 |
| 20260508172427 | 64 | 257 | 3.0 | 6.0 | 0.00 | 0.06 | 0.01 | 46 | 1010.2 |
| 20260508171923 | 63 | 210 | 1.0 | 5.0 | 0.00 | 0.06 | 0.01 | 47 | 1010.3 |
| 20260508171423 | 63 | 147 | 2.0 | 5.0 | 0.00 | 0.06 | 0.01 | 48 | 1010.3 |
| 20260508170943 | 63 | 178 | 2.0 | 5.0 | 0.00 | 0.06 | 0.01 | 50 | 1010.3 |
| 20260508170423 | 63 | 292 | 1.0 | 5.0 | 0.00 | 0.06 | 0.01 | 50 | 1010.5 |
| 20260508165924 | 63 | 221 | 1.0 | 5.0 | 0.00 | 0.06 | 0.01 | 50 | 1010.5 |
| 20260508165425 | 63 | 258 | 2.0 | 5.0 | 0.00 | 0.06 | 0.01 | 49 | 1010.6 |
| 20260508164925 | 63 | 177 | 1.0 | 7.0 | 0.00 | 0.06 | 0.01 | 48 | 1010.6 |
| 20260508164425 | 63 | 209 | 1.0 | 7.0 | 0.00 | 0.06 | 0.01 | 49 | 1010.6 |
| 20260508163926 | 62 | 219 | 2.0 | 5.0 | 0.00 | 0.06 | 0.01 | 49 | 1010.7 |
| 20260508163446 | 62 | 133 | 1.0 | 3.0 | 0.00 | 0.06 | 0.01 | 52 | 1010.7 |
| 20260508162915 | 61 | 360 | 1.0 | 5.0 | 0.00 | 0.06 | 0.01 | 54 | 1010.7 |
| 20260508162415 | 61 | 360 | 3.0 | 5.0 | 0.00 | 0.06 | 0.01 | 50 | 1010.8 |
| 20260508161915 | 60 | 360 | 2.0 | 5.0 | 0.00 | 0.06 | 0.01 | 53 | 1011.0 |
| 20260508161416 | 60 | 216 | 2.0 | 5.0 | 0.00 | 0.06 | 0.01 | 52 | 1011.0 |
| 20260508160916 | 59 | 360 | 1.0 | 8.0 | 0.00 | 0.06 | 0.01 | 62 | 1011.0 |
| 20260508160416 | 59 | 360 | 3.0 | 8.0 | 0.00 | 0.06 | 0.01 | 59 | 1011.0 |
| 20260508155935 | 58 | 360 | 1.0 | 5.0 | 0.00 | 0.06 | 0.01 | 62 | 1011.1 |
| 20260508155414 | 58 | 360 | 1.0 | 5.0 | 0.00 | 0.06 | 0.01 | 64 | 1011.1 |
| 20260508154915 | 57 | 360 | 0.0 | 5.0 | 0.00 | 0.06 | 0.01 | 61 | 1011.1 |
| 20260508154416 | 57 | 360 | 1.0 | 5.0 | 0.00 | 0.06 | 0.01 | 66 | 1011.1 |
| 20260508153917 | 57 | 360 | 2.0 | 6.0 | 0.00 | 0.06 | 0.01 | 69 | 1011.2 |
| 20260508153416 | 56 | 360 | 1.0 | 4.0 | 0.00 | 0.06 | 0.01 | 73 | 1011.1 |
| 20260508152916 | 56 | 360 | 0.0 | 3.0 | 0.00 | 0.06 | 0.01 | 76 | 1011.1 |
| 20260508152436 | 56 | 360 | 1.0 | 4.0 | 0.00 | 0.06 | 0.01 | 75 | 1011.1 |
| 20260508151935 | 55 | 360 | 1.0 | 5.0 | 0.00 | 0.06 | 0.01 | 76 | 1011.1 |
| 20260508151437 | 55 | 360 | 3.0 | 5.0 | 0.00 | 0.06 | 0.01 | 76 | 1011.1 |
| 20260508150915 | 55 | 360 | 2.0 | 3.0 | 0.00 | 0.06 | 0.01 | 77 | 1011.2 |
| 20260508150415 | 55 | 360 | 1.0 | 3.0 | 0.00 | 0.06 | 0.01 | 78 | 1011.2 |
| 20260508145916 | 55 | 360 | 1.0 | 3.0 | 0.00 | 0.06 | 0.01 | 79 | 1011.0 |
| 20260508144916 | 54 | 360 | 3.0 | 5.0 | 0.00 | 0.06 | 0.01 | 80 | 1011.0 |
| 20260508144416 | 54 | 360 | 0.0 | 5.0 | 0.00 | 0.06 | 0.01 | 83 | 1011.0 |
| 20260508143916 | 53 | 360 | 2.0 | 5.0 | 0.00 | 0.06 | 0.01 | 83 | 1011.0 |
| 20260508143435 | 53 | 360 | 0.0 | 2.0 | 0.00 | 0.06 | 0.01 | 83 | 1011.1 |
| 20260508142916 | 53 | 360 | 0.0 | 4.0 | 0.00 | 0.06 | 0.01 | 83 | 1011.0 |
| 20260508142417 | 52 | 360 | 2.0 | 4.0 | 0.00 | 0.06 | 0.01 | 84 | 1011.2 |
| 20260508141917 | 52 | 360 | 0.0 | 3.0 | 0.00 | 0.06 | 0.01 | 85 | 1011.2 |
| 20260508141418 | 52 | 360 | 0.0 | 4.0 | 0.00 | 0.06 | 0.01 | 86 | 1011.3 |
| 20260508140919 | 52 | 360 | 0.0 | 4.0 | 0.00 | 0.06 | 0.01 | 86 | 1011.4 |
| 20260508140419 | 52 | 360 | 0.0 | 3.0 | 0.00 | 0.06 | 0.01 | 87 | 1011.6 |
| 20260508135919 | 51 | 360 | 1.0 | 5.0 | 0.00 | 0.06 | 0.01 | 87 | 1011.6 |